Location: Unspecified
(90.0000°S, 0.0000°E)
Time: 03:13:17
(UTC+00:00)

METEOR M2 - Visible Passes

Search period start: 22 August 2019 00:00
Search period end: 01 September 2019 00:00
Orbit: 818 x 828 km, 98.5° (Epoch: 21 August)

Date Brightness Start Highest point End Pass type
(mag) Time Alt. Az. Time Alt. Az. Time Alt. Az.
22 Aug ? 00:00:33 10° ESE 00:05:37 36° NE 00:10:03 13° NNW visible
22 Aug ? 01:41:58 10° ENE 01:47:02 36° N 01:51:29 13° NW visible
22 Aug ? 03:23:23 10° NE 03:28:27 36° NNW 03:32:56 13° WNW visible
22 Aug ? 05:04:49 10° NNE 05:09:52 36° NW 05:14:21 13° WSW visible
22 Aug ? 06:46:14 10° N 06:51:17 36° WNW 06:55:47 13° SW visible
22 Aug ? 08:27:38 10° NNW 08:32:43 36° W 08:37:13 13° SSW visible
22 Aug ? 10:09:04 10° NW 10:14:08 36° WSW 10:18:38 13° S visible
22 Aug ? 11:50:29 10° WNW 11:55:33 36° SW 12:00:04 13° SSE visible
22 Aug ? 13:31:54 10° W 13:36:58 36° SSW 13:41:30 13° SE visible
22 Aug ? 15:13:19 10° SW 15:18:24 36° SSE 15:22:56 12° ESE visible
22 Aug ? 16:54:44 10° SSW 16:59:48 36° SE 17:04:22 12° ENE visible
22 Aug ? 18:36:10 10° S 18:41:13 36° ESE 18:45:48 12° NE visible
22 Aug ? 20:17:34 10° SSE 20:22:38 36° E 20:27:13 12° NNE visible
22 Aug ? 21:59:00 10° SE 22:04:03 36° ENE 22:08:39 12° N visible
22 Aug ? 23:40:25 10° ESE 23:45:29 36° NE 23:50:05 12° NNW visible
23 Aug ? 01:21:50 10° E 01:26:54 36° NNE 01:31:31 12° NW visible
23 Aug ? 03:03:15 10° ENE 03:08:19 36° N 03:12:57 12° WNW visible
23 Aug ? 04:44:40 10° NNE 04:49:44 36° NW 04:54:23 12° W visible
23 Aug ? 06:26:06 10° N 06:31:09 36° WNW 06:35:48 12° SW visible
23 Aug ? 08:07:31 10° NNW 08:12:34 36° W 08:17:15 12° SSW visible
23 Aug ? 09:48:56 10° NW 09:53:59 36° WSW 09:58:40 12° S visible
23 Aug ? 11:30:21 10° WNW 11:35:24 36° SW 11:40:06 12° SSE visible
23 Aug ? 13:11:46 10° W 13:16:50 36° SSW 13:21:32 12° SE visible
23 Aug ? 14:53:11 10° WSW 14:58:15 36° S 15:02:58 12° ESE visible
23 Aug ? 16:34:36 10° SW 16:39:40 36° SSE 16:44:23 12° E visible
23 Aug ? 18:16:01 10° S 18:21:05 36° ESE 18:25:49 11° ENE visible
23 Aug ? 19:57:26 10° SSE 20:02:30 36° E 20:07:15 11° NNE visible
23 Aug ? 21:38:52 10° SE 21:43:55 36° ENE 21:48:41 11° N visible
23 Aug ? 23:20:16 10° ESE 23:25:20 36° NE 23:30:07 11° NNW visible
24 Aug ? 01:01:41 10° E 01:06:45 36° NNE 01:11:33 11° NW visible
24 Aug ? 02:43:07 10° ENE 02:48:11 36° N 02:52:59 11° WNW visible
24 Aug ? 04:24:32 10° NE 04:29:36 36° NNW 04:34:24 11° W visible
24 Aug ? 06:05:57 10° N 06:11:01 36° NW 06:15:50 11° WSW visible
24 Aug ? 07:47:22 10° NNW 07:52:26 36° W 07:57:16 11° SSW visible
24 Aug ? 09:28:47 10° NW 09:33:51 36° WSW 09:38:42 11° S visible
24 Aug ? 11:10:12 10° WNW 11:15:16 36° SW 11:20:08 11° SSE visible
24 Aug ? 12:51:37 10° W 12:56:41 36° SSW 13:01:33 11° SE visible
24 Aug ? 14:33:03 10° WSW 14:38:06 36° S 14:43:00 11° ESE visible
24 Aug ? 16:14:27 10° SW 16:19:32 36° SSE 16:24:26 11° E visible
24 Aug ? 17:55:53 10° SSW 18:00:57 36° SE 18:05:51 11° ENE visible
24 Aug ? 19:37:18 10° SSE 19:42:21 36° ESE 19:47:17 11° NE visible
24 Aug ? 21:18:43 10° SE 21:23:47 36° ENE 21:28:43 11° N visible
24 Aug ? 23:00:08 10° ESE 23:05:12 36° NE 23:10:09 10° NNW visible
25 Aug ? 00:41:33 10° E 00:46:37 36° NNE 00:51:35 10° NW visible
25 Aug ? 02:22:59 10° ENE 02:28:02 36° N 02:33:01 10° WNW visible
25 Aug ? 04:04:23 10° NE 04:09:27 36° NNW 04:14:27 10° W visible
25 Aug ? 05:45:49 10° NNE 05:50:53 36° NW 05:55:52 10° WSW visible
25 Aug ? 07:27:13 10° N 07:32:17 36° WNW 07:37:18 10° SW visible
25 Aug ? 09:08:39 10° NW 09:13:43 36° WSW 09:18:44 10° SSW visible
25 Aug ? 10:50:04 10° WNW 10:55:08 36° SW 11:00:10 10° SSE visible
25 Aug ? 12:31:29 10° W 12:36:32 36° SSW 12:41:35 10° SE visible
25 Aug ? 14:12:55 10° WSW 14:17:58 36° S 14:23:02 10° ESE visible
25 Aug ? 15:54:19 10° SW 15:59:23 36° SSE 16:04:27 10° E visible
25 Aug ? 17:35:44 10° SSW 17:40:48 36° SE 17:45:52 10° ENE visible
25 Aug ? 19:17:09 10° S 19:22:13 36° ESE 19:27:17 10° NE visible
25 Aug ? 20:58:35 10° SSE 21:03:38 36° E 21:08:42 10° NNE visible
25 Aug ? 22:40:00 10° ESE 22:45:04 36° NE 22:50:07 10° N visible
26 Aug ? 00:21:24 10° E 00:26:29 36° NNE 00:31:32 10° NW visible
26 Aug ? 02:02:49 10° ENE 02:07:54 36° N 02:12:57 10° WNW visible
26 Aug ? 03:44:15 10° NE 03:49:19 36° NNW 03:54:23 10° W visible
26 Aug ? 05:25:40 10° NNE 05:30:44 36° NW 05:35:47 10° WSW visible
26 Aug ? 07:07:05 10° N 07:12:09 36° WNW 07:17:13 10° SW visible
26 Aug ? 08:48:30 10° NNW 08:53:34 36° W 08:58:38 10° SSW visible
26 Aug ? 10:29:56 10° NW 10:34:59 36° WSW 10:40:03 10° S visible
26 Aug ? 12:11:20 10° W 12:16:24 36° SSW 12:21:28 10° SSE visible
26 Aug ? 13:52:45 10° WSW 13:57:49 36° S 14:02:53 10° ESE visible
26 Aug ? 15:34:10 10° SW 15:39:14 36° SSE 15:44:19 10° E visible
26 Aug ? 17:15:36 10° SSW 17:20:40 36° SE 17:25:43 10° ENE visible
26 Aug ? 18:57:01 10° S 19:02:04 36° ESE 19:07:08 10° NE visible
26 Aug ? 20:38:26 10° SSE 20:43:30 36° E 20:48:33 10° NNE visible
26 Aug ? 22:19:51 10° SE 22:24:54 36° ENE 22:29:59 10° N visible
27 Aug ? 00:01:17 10° ESE 00:06:20 36° NE 00:11:23 10° NNW visible
27 Aug ? 01:42:41 10° ENE 01:47:45 36° N 01:52:49 10° WNW visible
27 Aug ? 03:24:07 10° NE 03:29:10 36° NNW 03:34:14 10° W visible
27 Aug ? 05:05:32 10° NNE 05:10:36 36° NW 05:15:39 10° WSW visible
27 Aug ? 06:46:57 10° N 06:52:01 36° WNW 06:57:04 10° SW visible
27 Aug ? 08:28:22 10° NNW 08:33:26 36° W 08:38:29 10° SSW visible
27 Aug ? 10:09:47 10° NW 10:14:51 36° WSW 10:19:54 10° S visible
27 Aug ? 11:51:13 10° WNW 11:56:16 36° SW 12:01:19 10° SSE visible
27 Aug ? 13:32:37 10° W 13:37:41 36° SSW 13:42:45 10° SE visible
27 Aug ? 15:14:03 10° SW 15:19:06 36° SSE 15:24:09 10° E visible
27 Aug ? 16:55:28 10° SSW 17:00:31 36° SE 17:05:35 10° ENE visible
27 Aug ? 18:36:53 10° S 18:41:57 36° ESE 18:47:00 10° NE visible
27 Aug ? 20:18:18 10° SSE 20:23:22 36° E 20:28:25 10° NNE visible
27 Aug ? 21:59:43 10° SE 22:04:47 36° ENE 22:09:50 10° N visible
27 Aug ? 23:41:09 10° ESE 23:46:12 36° NE 23:51:16 10° NNW visible
28 Aug ? 01:22:34 10° E 01:27:37 36° NNE 01:32:40 10° NW visible
28 Aug ? 03:03:59 10° ENE 03:09:02 36° N 03:14:05 10° WNW visible
28 Aug ? 04:45:24 10° NNE 04:50:27 36° NW 04:55:31 10° WSW visible
28 Aug ? 06:26:48 10° N 06:31:52 36° WNW 06:36:56 10° SW visible
28 Aug ? 08:08:14 10° NNW 08:13:17 36° W 08:18:20 10° SSW visible
28 Aug ? 09:49:39 10° NW 09:54:43 36° WSW 09:59:46 10° S visible
28 Aug ? 11:31:04 10° WNW 11:36:08 36° SW 11:41:11 10° SSE visible
28 Aug ? 13:12:30 10° W 13:17:33 36° SSW 13:22:36 10° SE visible
28 Aug ? 14:53:54 10° WSW 14:58:58 36° S 15:04:01 10° ESE visible
28 Aug ? 16:35:19 10° SSW 16:40:23 36° SSE 16:45:26 10° E visible
28 Aug ? 18:16:44 10° S 18:21:48 36° ESE 18:26:51 10° NE visible
28 Aug ? 19:58:10 10° SSE 20:03:13 36° E 20:08:16 10° NNE visible
28 Aug ? 21:39:35 10° SE 21:44:38 36° ENE 21:49:42 10° N visible
28 Aug ? 23:21:00 10° ESE 23:26:04 36° NE 23:31:07 10° NNW visible
29 Aug ? 01:02:24 10° E 01:07:28 36° NNE 01:12:32 10° NW visible
29 Aug ? 02:43:50 10° ENE 02:48:54 36° N 02:53:57 10° WNW visible
29 Aug ? 04:25:15 10° NE 04:30:19 36° NNW 04:35:22 10° W visible
29 Aug ? 06:06:40 10° N 06:11:44 36° NW 06:16:47 10° WSW visible
29 Aug ? 07:48:05 10° NNW 07:53:09 36° W 07:58:13 10° SSW visible
29 Aug ? 09:29:30 10° NW 09:34:34 36° WSW 09:39:38 10° S visible
29 Aug ? 11:10:56 10° WNW 11:15:59 36° SW 11:21:03 10° SSE visible
29 Aug ? 12:52:20 10° W 12:57:24 36° SSW 13:02:28 10° SE visible
29 Aug ? 14:33:46 10° WSW 14:38:49 36° S 14:43:53 10° ESE visible
29 Aug ? 16:15:11 10° SW 16:20:15 36° SSE 16:25:18 10° E visible
29 Aug ? 17:56:36 10° SSW 18:01:40 36° SE 18:06:43 10° ENE visible
29 Aug ? 19:38:02 10° SSE 19:43:05 36° E 19:48:08 10° NE visible
29 Aug ? 21:19:26 10° SE 21:24:30 36° ENE 21:29:33 10° N visible
29 Aug ? 23:00:52 10° ESE 23:05:55 36° NE 23:10:58 10° NNW visible
30 Aug ? 00:42:16 10° E 00:47:20 36° NNE 00:52:24 10° NW visible
30 Aug ? 02:23:42 10° ENE 02:28:45 36° N 02:33:49 10° WNW visible
30 Aug ? 04:05:07 10° NE 04:10:10 36° NNW 04:15:14 10° W visible
30 Aug ? 05:46:32 10° NNE 05:51:36 36° NW 05:56:39 10° WSW visible
30 Aug ? 07:27:57 10° N 07:33:01 36° WNW 07:38:04 10° SW visible
30 Aug ? 09:09:22 10° NW 09:14:26 36° WSW 09:19:29 10° SSW visible
30 Aug ? 10:50:47 10° WNW 10:55:51 36° SW 11:00:54 10° SSE visible
30 Aug ? 12:32:12 10° W 12:37:16 36° SSW 12:42:19 10° SE visible
30 Aug ? 14:13:37 10° WSW 14:18:41 36° S 14:23:44 10° ESE visible
30 Aug ? 15:55:02 10° SW 16:00:06 36° SSE 16:05:09 10° E visible
30 Aug ? 17:36:27 10° SSW 17:41:31 36° SE 17:46:34 10° ENE visible
30 Aug ? 19:17:53 10° S 19:22:57 36° ESE 19:28:00 10° NE visible
30 Aug ? 20:59:18 10° SSE 21:04:22 36° E 21:09:25 10° NNE visible
30 Aug ? 22:40:43 10° ESE 22:45:46 36° NE 22:50:50 10° N visible
31 Aug ? 00:22:08 10° E 00:27:12 36° NNE 00:32:15 10° NW visible
31 Aug ? 02:03:33 10° ENE 02:08:37 36° N 02:13:40 10° WNW visible
31 Aug ? 03:44:58 10° NE 03:50:02 36° NNW 03:55:05 10° W visible
31 Aug ? 05:26:23 10° NNE 05:31:27 36° NW 05:36:30 10° WSW visible
31 Aug ? 07:07:48 10° N 07:12:52 36° WNW 07:17:56 10° SW visible
31 Aug ? 08:49:13 10° NNW 08:54:18 36° W 08:59:21 10° SSW visible
31 Aug ? 10:30:39 10° NW 10:35:42 36° WSW 10:40:46 10° S visible
31 Aug ? 12:12:04 10° W 12:17:08 36° SSW 12:22:11 10° SE visible
31 Aug ? 13:53:29 10° WSW 13:58:33 36° S 14:03:36 10° ESE visible
31 Aug ? 15:34:54 10° SW 15:39:58 36° SSE 15:45:01 10° E visible
31 Aug ? 17:16:19 10° SSW 17:21:23 36° SE 17:26:26 10° ENE visible
31 Aug ? 18:57:44 10° S 19:02:48 36° ESE 19:07:51 10° NE visible
31 Aug ? 20:39:09 10° SSE 20:44:13 36° E 20:49:17 10° NNE visible
31 Aug ? 22:20:35 10° SE 22:25:38 36° ENE 22:30:41 10° N visible
